Hickory, NC

10:49 PM EDT on August 18, 2017 (GMT -0400)
Hickory Regional

Weather History for KHKY - April, 2013

Change the Weather History Date:

Thursday, April 25, 2013

  Actual Average Record
Temperature  
Mean Temperature 58 °F -  
Max Temperature 72 °F 71 °F 91 °F (1960)
Min Temperature 46 °F 48 °F 31 °F (1974)
Degree Days  
Heating Degree Days 6    
Growing Degree Days 8 (Base 50)    
Moisture  
Dew Point 35 °F    
Average Humidity 45    
Maximum Humidity 78    
Minimum Humidity 17    
Precipitation  
Precipitation 0.00 in - - ()
Sea Level Pressure  
Sea Level Pressure 30.16 in    
Wind  
Wind Speed 5 mph (North)    
Max Wind Speed 7 mph    
Max Gust Speed -    
Visibility 10 miles    
Events      
Averages and records for this station are not official NWS values.
T = Trace of Precipitation, MM = Missing Value Source: NWS Daily Summary

Daily Weather History Graph

Daily Weather History Graph

Search for Another Location

Airport or City:

Trip Planner

Search our weather history database for the weather conditions in past years. The results will help you decide how hot, cold, wet, or windy it might be!

Date:

Astronomy

Apr. 25, 2013 Rise Set
Actual Time 6:39 AM EDT 8:07 PM EDT
Civil Twilight 6:13 AM EDT 8:34 PM EDT
Nautical Twilight 5:40 AM EDT 9:06 PM EDT
Astronomical Twilight 5:06 AM EDT 9:40 PM EDT
Moon 8:17 PM EDT (4/25) 6:21 AM EDT (4/25)
Length of Visible Light 14h 21m
Length of Day
13h 27m
Full, 100% of the Moon is Illuminated
Apr 25
Full
Apr 25
Full
May 2
Last Quarter
May 9
New
May 18
First Quarter

Hourly Weather History & Observations

Time (EDT) Temp. Windchill Dew Point Humidity Pressure Visibility Wind Dir Wind Speed Gust Speed Precip Events Conditions
12:53 AM 60.1 °F - 53.1 °F 78% 30.02 in 10.0 mi NW 5.8 mph - N/A   Overcast
1:53 AM 59.0 °F - 48.0 °F 67% 30.03 in 10.0 mi NNW 4.6 mph - N/A   Overcast
2:53 AM 57.0 °F - 45.0 °F 64% 30.04 in 10.0 mi NNW 4.6 mph - N/A   Mostly Cloudy
3:53 AM 55.0 °F - 45.0 °F 69% 30.07 in 10.0 mi North 5.8 mph - N/A   Overcast
4:53 AM 51.1 °F - 42.1 °F 71% 30.09 in 10.0 mi North 5.8 mph - N/A   Mostly Cloudy
5:53 AM 48.9 °F - 37.9 °F 66% 30.12 in 10.0 mi NNW 5.8 mph - N/A   Overcast
6:53 AM 46.0 °F 44.8 °F 35.1 °F 66% 30.17 in 10.0 mi NNW 3.5 mph - N/A   Clear
7:53 AM 48.0 °F - 36.0 °F 63% 30.19 in 10.0 mi North 4.6 mph - N/A   Clear
8:53 AM 51.1 °F - 36.0 °F 56% 30.20 in 10.0 mi NE 6.9 mph - N/A   Clear
9:53 AM 53.1 °F - 35.1 °F 50% 30.21 in 10.0 mi Variable 6.9 mph - N/A   Clear
10:53 AM 55.0 °F - 34.0 °F 45% 30.22 in 10.0 mi Variable 4.6 mph - N/A   Clear
11:53 AM 59.0 °F - 34.0 °F 39% 30.23 in 10.0 mi Variable 5.8 mph - N/A   Clear
12:53 PM 62.1 °F - 34.0 °F 35% 30.22 in 10.0 mi NW 5.8 mph - N/A   Clear
1:53 PM 64.9 °F - 32.0 °F 29% 30.19 in 10.0 mi NNE 6.9 mph - N/A   Clear
2:53 PM 68.0 °F - 28.0 °F 22% 30.18 in 10.0 mi Variable 3.5 mph - N/A   Clear
3:53 PM 69.1 °F - 32.0 °F 25% 30.16 in 10.0 mi Variable 5.8 mph - N/A   Clear
4:53 PM 71.1 °F - 30.0 °F 22% 30.14 in 10.0 mi Variable 3.5 mph - N/A   Clear
5:53 PM 71.1 °F - 24.1 °F 17% 30.14 in 10.0 mi Calm Calm - N/A   Clear
6:53 PM 68.0 °F - 30.9 °F 25% 30.16 in 10.0 mi Calm Calm - N/A   Clear
7:53 PM 64.9 °F - 33.1 °F 31% 30.18 in 10.0 mi Calm Calm - N/A   Clear
8:53 PM 60.1 °F - 30.0 °F 32% 30.21 in 10.0 mi NNW 3.5 mph - N/A   Clear
9:53 PM 57.0 °F - 26.1 °F 30% 30.25 in 10.0 mi NNE 3.5 mph - N/A   Clear
10:53 PM 54.0 °F - 26.1 °F 34% 30.27 in 10.0 mi North 4.6 mph - N/A   Clear
11:53 PM 54.0 °F - 26.1 °F 34% 30.27 in 10.0 mi NNW 4.6 mph - N/A   Clear